Regional Weather Roundup
Issued by NWS

Home | Current Version | Previous Version | Graphics & Text | Print | Product List | Glossary On
Versions: 1 2 3 4 5 6 7 8 9 10 11 12 13 14 15 16 17 18 19 20 21 22 23 24 25 26 27 28 29 30 31 32 33 34 35 36 37 38 39 40 41 42 43 44 45 46 47 48 49 50
000
ASUS43 KMKX 020317
RWRWI

WISCONSIN REGIONAL WEATHER ROUNDUP
NATIONAL WEATHER SERVICE MILWAUKEE/SULLIVAN WI
1000 PM CDT MON JUN 01 2015

NOTE: "FAIR" INDICATES FEW OR NO CLOUDS BELOW 12,000 FEET WITH NO
SIGNIFICANT WEATHER AND/OR OBSTRUCTIONS TO VISIBILITY.

WIZ001-002-006>008-014>016-023>028-020400-
NORTHWEST WISCONSIN

CITY           SKY/WX    TMP DP  RH WIND       PRES   REMARKS
SUPERIOR ARPT  CLEAR     41  35  78 NE6       30.17S
ASHLAND        PTCLDY    42  39  89 SW3       30.17S
HAYWARD        CLEAR     59  41  51 SE7       30.15F
SIREN          CLEAR     57  43  59 CALM      30.14R
CUMBERLAND     CLEAR     55  43  62 SE6       30.14F
RICE LAKE      CLEAR     59  44  58 SE7       30.16F
CHETEK         CLEAR     58  45  60 SE6       30.16S
LADYSMITH      PTCLDY    57  43  58 SE3       30.19S
EAU CLAIRE     NOT AVBL
MENOMONIE      PTCLDY    58  44  58 SE5       30.15F
NEW RICHMOND   CLEAR     59  41  51 SE5       30.14S
OSCEOLA        CLEAR     59  41  51 SE5       30.16S
$$

WIZ003>005-009-010-017-018-020400-
NORTH CENTRAL WISCONSIN

CITY           SKY/WX    TMP DP  RH WIND       PRES   REMARKS
MANITOWISH WTR CLEAR     53  36  52 S5        30.19S
ARBOR VITAE    CLEAR     57  38  48 CALM      30.20S
WOODRUFF       CLEAR     57  38  48 CALM      30.20S
RHINELANDER    CLEAR     53  36  52 SE7       30.22S
EAGLE RIVER    CLEAR     53  33  46 S3        30.21R
LAND O LAKES   CLEAR     48  37  65 CALM      30.22R
PHILLIPS       CLEAR     55  40  57 S6        30.18S
TOMAHAWK       CLEAR     49  39  68 CALM      30.21S
MEDFORD        CLEAR     53  39  59 SE3       30.20S
MERRILL        CLEAR     52  40  63 SE3       30.22S
$$

WIZ029-030-035-036-043>047-020400-
CENTRAL WISCONSIN

CITY           SKY/WX    TMP DP  RH WIND       PRES   REMARKS
WAUSAU         PTCLDY    52  40  63 E6        30.20S
MOSINEE        NOT AVBL
MARSHFIELD     CLEAR     54  36  50 SE5       30.20S
STEVENS POINT  CLEAR     51  39  64 CALM      30.22R
WAUPACA        CLEAR     53  44  71 CALM      30.23R
WAUTOMA        NOT AVBL
WISC RAPIDS    CLEAR     52  34  50 SE7       30.22R
CAMP DOUGLAS   NOT AVBL
$$

WIZ011>013-019>022-031-037>040-048>050-020400-
NORTHEAST WISCONSIN

CITY           SKY/WX    TMP DP  RH WIND       PRES   REMARKS
ANTIGO         CLEAR     47  41  77 SE6       30.23R
SHAWANO        CLEAR     51  42  71 CALM      30.24R
OCONTO         CLEAR     44  41  89 CALM      30.23R
STURGEON BAY   CLEAR     46  34  61 CALM      30.25S
GREEN BAY      CLEAR     51  44  77 CALM      30.24R
MANITOWOC      NOT AVBL
APPLETON       CLEAR     55  34  44 CALM      30.23R
CLINTONVILLE   CLEAR     52  39  62 CALM      30.23R
OSHKOSH        CLEAR     53  38  56 CALM      30.22R
$$

WIZ032>034-041-042-053>061-020400-
SOUTHWEST WISCONSIN

CITY           SKY/WX    TMP DP  RH WIND       PRES   REMARKS
LA CROSSE      PTCLDY    60  43  53 SE6       30.17R
SPARTA         PTCLDY    50  42  71 E5        30.20R
VIROQUA        PTCLDY    55  38  52 E7        30.19R
BOSCOBEL       CLEAR     51  47  86 CALM      30.19R
PRAIRIE DU CHI FAIR      55  43  64 E3        30.17R
PLATTEVILLE    PTCLDY    55  43  64 E8        30.18S
$$

WIZ056-057-062-063-064-067-068-020400-
SOUTH CENTRAL WISCONSIN

CITY           SKY/WX    TMP DP  RH WIND       PRES   REMARKS
REEDSBURG      CLEAR     53  39  58 CALM      30.20R
BARABOO/DELLS  CLEAR     49  38  66 E3        30.21R
LONE ROCK      NOT AVBL
MINERAL POINT  CLEAR     57  28  33 E7        30.19S
MADISON        PTCLDY    54  30  40 SE5       30.21R
MIDDLETON      CLEAR     58  28  31 CALM      30.21R
WATERTOWN      CLEAR     49  37  62 E5        30.21S
MONROE         CLEAR     52  36  54 E5        30.20R
JANESVILLE     CLEAR     52  37  58 E6        30.20S
$$

WIZ051-052-058>065-066-070>072-020400-
SOUTHEAST WISCONSIN

CITY           SKY/WX    TMP DP  RH WIND       PRES   REMARKS
MILWAUKEE      CLEAR     47  33  58 N5        30.23R
WAUKESHA       CLEAR     46  32  57 E3        30.23S
MILWAUKEE/TIMM CLEAR     50  30  46 NE3       30.23S
RACINE         CLEAR     45  35  68 N3        30.24R
BURLINGTON     CLEAR     45  35  68 E3        30.22S
KENOSHA        CLEAR     46  35  65 N5        30.23R
FOND DU LAC    CLEAR     48  41  76 SE5       30.22S
SHEBOYGAN      CLEAR     43  38  82 CALM      30.23S
WEST BEND      CLEAR     48  36  61 CALM      30.23S
JUNEAU         CLEAR     53  34  50 E5        30.23R
$$

LSZ147-162-020400-
LAKE SUPERIOR

STATION/POSITION TIME  TEMP    WIND        PRES    WAVE
                       AIR SEA DIR/SP/G            HT/PER
                 (UTC) (F)     (DEG/KT/KT) (MB)    (FT/S)
W MID LAKE BUOY  0150   40 37   70/ 12/ 14   N/A     1/ 3
DEVILS ISLAND    0200   42      10/  9/  9   N/A
PORT WING        0200   42      40/ 14/ 16   N/A
SAXON HARBOR     0240   43        CALM       N/A
$$

LMZ867-665-643>646-020400-
LAKE MICHIGAN

STATION/POSITION TIME  TEMP    WIND        PRES    WAVE
                       AIR SEA DIR/SP/G            HT/PER
                 (UTC) (F)     (DEG/KT/KT) (MB)    (FT/S)
CHAMBERS ISLAND  0200   45      CALM  /  1   N/A
N MID LAKE BUOY  0150   45 37   40/  4/  4   N/A     0
SISTER BAY       0218             CALM       N/A
ALGOMA LAKESHORE 0209             CALM       N/A
KEWAUNEE LAKESHO 0200   51      10/  2/  4   N/A
SHEBOYGAN LAKESH 0200   51     360/ 10/ 11   N/A
ATWATER BUOY     0200   47     350/  8/  8   N/A
MILWAUKEE LAKESH 0200   50      10/  9/ 11   N/A
S MID LAKE BUOY  0150   41 38  350/  8/ 10   N/A     1/ 3
KENOSHA   LAKESH 0200   49      10/ 11/ 15   N/A
$$

TC  - TEMPERATURE IN CELSIUS
VSB - VISIBILITY IN STATUTE MILES
WCI - WIND CHILL INDEX
HX  - HEAT INDEX



USA.gov is the U.S. government's official web portal to all federal, state and local government web resources and services.